Regional Weather Roundup
Issued by NWS

Home | Current Version | Previous Version | Graphics & Text | Print | Product List | Glossary On
Versions: 1 2 3 4 5 6 7 8 9 10 11 12 13 14 15 16 17 18 19 20 21 22 23 24 25 26 27 28 29 30 31 32 33 34 35 36 37 38 39 40 41 42 43 44 45 46 47 48 49 50
000
ASUS43 KOAX 271302
RWRNE

WEATHER ROUNDUP FOR NEBRASKA
NATIONAL WEATHER SERVICE OMAHA NE
800 AM CDT SAT AUG 27 2016

NOTES: SATELLITE DATA IS BEING USED TO AUGMENT CLOUD COVER ABOVE
       12000 FEET.
       "FAIR" INDICATES FEW OR NO CLOUDS BELOW 12,000 FEET WITH NO
       SIGNIFICANT WEATHER AND/OR OBSTRUCTIONS TO VISIBILITY.

  * THESE STATIONS DO NOT REPORT WEATHER SUCH AS RAIN...SNOW OR FOG.

NEZ001>004-019>022-054>056-271400-
NEBRASKA PANHANDLE

CITY           SKY/WX    TMP DP  RH WIND       PRES   REMARKS
SCOTTSBLUFF    FOG       54  52  93 SE7       30.07R VSB<1/4
ALLIANCE       FOG       55  54  96 S12       30.05S VSB 1/2
CHADRON        CLEAR     51  49  92 W6        30.03S
KIMBALL        CLEAR     49  49 100 S5        30.11S
SIDNEY         FOG       50  50 100 S5        30.10R VSB 1/4
$$

NEZ057>060-069>072-079>082-271400-
SOUTHWEST NEBRASKA

CITY           SKY/WX    TMP DP  RH WIND       PRES   REMARKS
NORTH PLATTE   FOG       54  51  90 CALM      30.07R VSB<1/4
IMPERIAL       MOCLDY    53  51  93 CALM      30.09R
LEXINGTON      PTSUNNY   53  52  96 S3        30.08R FOG
MCCOOK         CLEAR     54  53  97 CALM      30.08R
OGALLALA       FOG       55  54  94 CALM      30.09S VSB<1/4
$$

NEZ005>010-023>029-035>040-094-271400-
NORTH CENTRAL NEBRASKA

CITY           SKY/WX    TMP DP  RH WIND       PRES   REMARKS
VALENTINE      CLOUDY    56  53  90 W5        30.03R
AINSWORTH      MOSUNNY   57  57 100 S3        30.03F FOG
BROKEN BOW     FOG       58  58 100 CALM      30.06R VSB 1/4
O`NEILL        DRZL/FOG  59  58  96 S3        30.04S VSB<1/4
ORD            FOG       60  59  96 SW5       30.04R VSB<1/4
THEDFORD       FOG       54  54  99 N6        30.08R VSB<1/4
$$

NEZ041-046>049-061>064-073>077-083>087-271400-
SOUTH CENTRAL NEBRASKA

CITY           SKY/WX    TMP DP  RH WIND       PRES   REMARKS
GRAND ISLAND   MOSUNNY   59  59 100 W6        30.05R
AURORA         FOG       59  59 100 CALM      30.05R VSB<1/4
HASTINGS       SUNNY     58  57  97 CALM      30.06R
HEBRON         CLOUDY    65  64  97 CALM      30.04R FOG
HOLDREGE       SUNNY     56  55  95 CALM      30.06S
KEARNEY *      SUNNY     57  55  94 CALM      30.05R
YORK           CLOUDY    64  64 100 W5        30.05R FOG
$$

NEZ011>018-030>034-042>045-271400-
NORTHEAST NEBRASKA

CITY           SKY/WX    TMP DP  RH WIND       PRES   REMARKS
NORFOLK        CLOUDY    64  62  93 W5        30.04R FOG
ALBION         MOSUNNY   63  61  94 CALM      30.04F FOG
BLAIR          FOG       66  65  97 CALM      30.03S VSB<1/4
FREMONT        FOG       66  66 100 CALM      30.04R VSB 3/4
TEKAMAH        FOG       65  65 100 CALM      30.03R VSB 1/4
WAYNE          CLOUDY    64  64  99 CALM      30.04S FOG
$$

NEZ050>053-065>068-078-088>093-271400-
SOUTHEAST NEBRASKA

CITY           SKY/WX    TMP DP  RH WIND       PRES   REMARKS
LINCOLN        CLOUDY    68  67  96 N3        30.03S FOG
OMAHA EPPLEY   CLOUDY    67  65  93 S5        30.02R FOG
BEATRICE       CLOUDY    67  66  97 CALM      30.03R
FALLS CITY     CLOUDY    68  67  96 W5        30.02R
NEBRASKA CITY  CLOUDY    67  67 100 CALM      30.03R FOG
PLATTSMOUTH    CLOUDY    67  67 100 SW3       30.03S FOG
$$

NEZ044-045-051>053-067-271400-
OMAHA AREA

CITY           SKY/WX    TMP DP  RH WIND       PRES   REMARKS
OMAHA EPPLEY   CLOUDY    67  65  93 S5        30.02R FOG
BLAIR          FOG       66  65  97 CALM      30.03S VSB<1/4
FREMONT        FOG       66  66 100 CALM      30.04R VSB 3/4
MILLARD        CLOUDY    67  66  96 SE3       30.02S FOG
OFFUTT AFB     CLOUDY    67  67  99 SE2       30.02R FOG
PLATTSMOUTH    CLOUDY    67  67 100 SW3       30.03S FOG
WAHOO          FOG       67  65  96 CALM      30.02F VSB 3/4
$$




USA.gov is the U.S. government's official web portal to all federal, state and local government web resources and services.